Regional Weather Roundup
Issued by NWS

Home | Current Version | Previous Version | Text Only | Print | Product List | Glossary Off
Versions: 1 2 3 4 5 6 7 8 9 10 11 12 13 14 15 16 17 18 19 20 21 22 23 24 25 26 27 28 29 30 31 32 33 34 35 36 37 38 39 40 41 42 43 44 45 46 47 48 49

000
ASUS45 KBOU 231710
RWRCO

WEATHER ROUNDUP FOR COLORADO
NATIONAL WEATHER SERVICE PUEBLO CO
1100 AM MDT MON APR 23 2018

NOTE: "FAIR" INDICATES FEW OR NO CLOUDS BELOW 12000 FEET WITH NO
SIGNIFICANT WEATHER AND/OR OBSTRUCTIONS TO VISIBILITY.

COZ001>005-013-030-031-231800-
...NORTHWEST COLORADO...

CITY           SKY/WX    TMP DP  RH WIND       PRES   REMARKS
CRAIG          MOSUNNY   64  36  35 N5        30.09S
HAYDEN         MOSUNNY   59  29  31 CALM      30.12R
MEEKER         PTSUNNY   64  32  30 CALM      30.10F
RABBIT EARS PA NOT AVBL
STEAMBOAT SPGS FAIR      58  31  36 CALM      30.12S
WALDEN         FAIR      59  23  25 S13G21    30.16F
$$

COZ006>008-011-231800-
...WEST CENTRAL VALLEYS...

CITY           SKY/WX    TMP DP  RH WIND       PRES   REMARKS
GRAND JUNCTION SUNNY     68  33  27 VRB3      30.07S
MONTROSE       SUNNY     67  30  25 N6        30.13S
EAGLE          MOSUNNY   55  32  41 NW5       30.18F
RIFLE          MOSUNNY   59  37  44 CALM      30.11F
DELTA          NOT AVBL
NUCLA          FAIR      64  28  25 N3        30.17
$$

COZ017>023-064>068-231800-
...SOUTHWEST COLORADO...

CITY           SKY/WX    TMP DP  RH WIND       PRES   REMARKS
DURANGO        SUNNY     63  25  23 VRB5      30.20S
CORTEZ         SUNNY     68  24  19 SW12      30.16S
PAGOSA SPRINGS FAIR      59  20  22 SE9       30.26S
TELLURIDE      CLOUDY    55  19  24 W9G23     30.30S
WOLF CREEK PAS SUNNY     37  21  52 S9        30.47R
$$

COZ009-010-012-014-032>034-037-058>063-231800-
...CENTRAL COLORADO...

CITY           SKY/WX    TMP DP  RH WIND       PRES   REMARKS
ASPEN          MOSUNNY   59  26  28 CALM      30.17F
BUENA VISTA    FAIR      54  31  41 SE6       30.21F
COPPER MTN     NOT AVBL
BERTHOUD PASS  CLOUDY    32  21  64 NW36G44   30.34R WCI  16
COTTONWOOD PAS MOSUNNY   55  32  41 CALM      30.29S
GUNNISON       SUNNY     52  33  48 CALM      30.23F
KREMMLING      SUNNY     59  32  36 CALM      30.17F
LEADVILLE      CLOUDY    47  25  42 W14G20    30.26F
MONARCH PASS   MOSUNNY   36  27  69 W29G36    30.48S
SALIDA         PTSUNNY   55  36  48 CALM      30.27F
SUNLIGHT       MOSUNNY   45  23  42 SW8G23    30.35R
WILKERSON PASS PTSUNNY   41  25  52 W5        30.37R
$$

COZ069>075-231800-
...SAN LUIS VALLEY/SANGRE DE CRISTO MOUNTAINS...

CITY           SKY/WX    TMP DP  RH WIND       PRES   REMARKS
ALAMOSA        MOSUNNY   58  26  29 VRB3      30.22S
DEL NORTE      FAIR      56  27  32 E8        30.24S
LA VETA PASS   MOSUNNY   50  27  40 S12G25    30.43R
SAGUACHE       NOT AVBL
$$

COZ035-036-038>040-231800-
...NORTHERN COLORADO FRONT RANGE...

CITY           SKY/WX    TMP DP  RH WIND       PRES   REMARKS
DENVER INTL AP PTSUNNY   57  41  55 E5        30.08F
DMNS CITY PARK NOT AVBL
AURORA         NOT AVBL
FRONT RANGE AP PTSUNNY   61  41  48 N7        30.10S
ERIE MUNI ARPT FAIR      56  38  51 CALM      30.13S
BOULDER MUN AP FAIR      55  37  50 CALM      30.07F
CENTENNIAL     PTSUNNY   62  40  44 N6        30.09S
BROOMFIELD     PTSUNNY   57  37  47 CALM      30.09F
LOVELAND       PTSUNNY   53  40  61 CALM      30.09S
LONGMONT       FAIR      58  41  52 NE5       30.09F
$$

COZ041-046-047-076>085-087-088-231800-
...PIKES PEAK/PALMER DIVIDE AND SOUTHERN FOOTHILLS...

CITY           SKY/WX    TMP DP  RH WIND       PRES   REMARKS
COLO. SPRINGS  PTSUNNY   54  37  52 E8        30.13S
A. F. ACADEMY  MOSUNNY   59  35  41 SE9       30.12S
SCHRIEVER AFB  NOT AVBL
CHEYENNE MTN   NOT AVBL
ELLICOTT         N/A    N/A N/A N/A S9G18     30.12S
FALCON         FAIR      58  35  41 S9        30.16S
FORT CARSON    MOSUNNY   55  39  55 CALM      30.12S
LIMON          SUNNY     57  38  48 SE18G26   30.12S
MONUMENT HILL  MOSUNNY   63  27  25 NW12G18   30.15S
CANON CITY     FAIR      61  41  48 E8G16     30.09F
WALSENBURG     FAIR      66  34  30 N5        30.12S
TRINIDAD       SUNNY     63  37  38 VRB3      30.11F
$$

COZ042>045-048>051-090-091-231800-
...NORTHEAST COLORADO...

CITY           SKY/WX    TMP DP  RH WIND       PRES   REMARKS
GREELEY ARPT   PTSUNNY   54  42  64 SE3       30.09F
AKRON          SUNNY     58  41  53 S17       30.11R
BURLINGTON     SUNNY     57  39  51 S20       30.15S
WRAY           FAIR      61  37  41 S12G23    30.14S
YUMA           NOT AVBL
STERLING       NOT AVBL
HOLYOKE        FAIR      59  41  51 S15       30.14S
FORT MORGAN    FAIR      59  37  44 SE9G16    30.10S
$$

COZ086-089-092>099-231800-
...SOUTHEAST COLORADO...

CITY           SKY/WX    TMP DP  RH WIND       PRES   REMARKS
PUEBLO         SUNNY     57  37  47 E5        30.10F
LA JUNTA       SUNNY     57  39  51 SE8       30.11F
LAMAR          SUNNY     62  40  44 SE15G23   30.11F
SPRINGFIELD      N/A     59  40  49 S17G30    30.12F
$$





USA.gov is the U.S. government's official web portal to all federal, state and local government web resources and services.